SCP
1 1 1 1 0 0 0 0 0 0 1 1 1 1 1 0 0 0 0 0 0 0 0 0 0 0 0 0 0 0 0 0 0 0 0 0 0 0 0 0 0 0 0
1 1 1 1 0 0 0 0 0 0 1 1 1 1 1 0 0 0 0 0 0 0 0 0 0 0 0 0 0 0 0 0 0 0 0 0 0 0 0 0 0 0 0
1 1 0 0 0 0 0 0 0 0 0 1 1 1 1 0 0 0 0 0 0 0 0 0 0 0 0 0 0 0 0 0 0 0 0 0 0 0 0 0 0 0 0
1 0 0 0 0 0 0 0 0 0 0 1 0 0 0 0 0 0 0 0 0 0 0 0 0 0 -0 -0 0 0 0 0 0 0 0 0 0 0 0 0 0 0 0
0 0 0 0 0 0 0 0 0 0 0 0 0 0 0 0 0 0 0 0 0 0 0 0 0 0 -0 0 0 0 0 0 0 0 0 0 0 0 0 0 0 0 0
0 0 0 0 0 0 0 0 0 0 0 0 0 0 0 0 0 0 0 0 0 0 0 0 0 0 0 0 0 0 0 0 0 0 0 0 0 0 0 0 0 0 0
0 0 0 0 0 0 0 0 0 0 0 0 0 0 0 0 0 0 0 0 0 0 0 0 0 0 0 0 0 0 0 0 0 0 0 0 0 0 0 0 0 0 0
0 0 0 0 0 0 0 0 0 0 0 0 0 0 0 0 0 0 0 0 0 0 0 0 0 0 0 0 0 0 0 0 0 0 0 0 0 0 0 0 0 0 0
0 0 0 0 0 0 0 0 0 0 0 0 0 0 0 0 0 0 0 0 0 0 0 0 0 0 0 0 0 0 0 0 0 0 0 0 0 0 0 0 0 0 0
0 0 0 0 0 0 0 0 0 0 0 0 0 0 0 0 0 0 0 0 0 0 0 0 0 0 0 0 0 0 0 0 0 0 0 0 0 0 0 0 0 0 0
0 0 0 0 0 0 0 0 0 0 0 0 0 0 0 0 0 0 0 0 0 0 0 0 0 0 0 0 0 0 0 0 0 0 0 0 0 0 0 0 0 0 0
0 0 0 0 0 0 0 0 0 0 0 0 0 0 0 0 0 0 0 0 0 0 0 0 0 0 0 0 0 0 0 0 0 0 0 0 0 0 0 0 0 0 0
0 0 0 0 0 0 0 0 0 0 0 0 0 0 0 0 0 0 0 0 0 0 0 0 0 0 0 0 0 0 0 0 0 0 0 0 0 0 0 0 0 0 0
1 0 0 0 0 0 0 0 0 0 0 0 0 0 0 0 0 0 0 0 0 0 0 0 0 0 0 0 0 0 0 0 0 0 0 0 0 0 0 0 0 0 0
1 1 1 0 0 0 0 0 0 0 0 0 0 0 0 0 0 0 0 0 0 0 0 1 1 0 0 0 0 0 0 0 0 0 0 0 0 0 0 0 0 0 0
1 1 1 1 0 0 0 0 0 0 0 0 0 0 0 0 0 0 1 1 1 1 1 1 1 1 0 0 0 0 0 0 0 0 0 0 0 0 0 0 0 0 0
1 1 1 1 0 0 0 0 0 0 0 0 0 0 0 0 1 1 1 1 1 1 1 1 1 1 0 0 0 0 0 0 0 1 1 0 0 0 0 0 0 0 0
1 1 1 1 1 0 0 0 0 0 0 0 0 1 1 1 1 1 1 1 1 1 1 1 1 1 0 0 0 0 0 0 0 1 1 0 0 0 0 0 0 0 0
1 1 1 1 1 1 1 1 1 1 1 1 1 1 1 1 1 1 1 1 1 1 1 1 1 1 1 0 0 0 0 0 0 0 0 0 0 0 0 0 0 0 0
1 1 1 1 1 1 1 1 1 1 1 1 1 1 1 1 1 1 1 1 1 1 1 1 1 1 1 0 0 0 0 0 0 0 0 0 0 0 0 0 0 0 0
0 1 1 1 1 1 1 1 1 1 1 1 1 1 1 1 1 1 1 1 1 1 1 1 1 1 0 0 0 0 0 0 0 0 0 0 0 0 0 0 0 0 0
0 0 0 0 1 1 1 1 1 1 1 1 1 1 1 0 1 1 1 1 1 1 1 1 0 0 0 0 0 0 0 0 0 0 0 0 0 0 0 0 0 0 0
0 0 0 0 0 0 1 1 1 1 0 0 0 0 0 0 0 0 0 0 1 0 0 0 0 0 0 0 0 0 0 0 0 0 0 0 0 0 0 0 0 0 0
0 0 0 0 0 0 0 0 0 0 0 0 0 0 0 0 0 0 0 0 0 0 0 0 0 0 0 0 0 0 0 0 0 0 0 0 0 0 0 0 0 0 0
0 0 0 0 0 0 0 0 0 0 0 0 0 0 0 0 0 0 0 0 0 0 0 0 0 0 0 0 0 0 0 0 0 0 0 0 0 0 0 0 0 0 0
0 0 0 0 0 0 0 0 0 0 0 0 0 0 0 0 0 0 0 0 0 0 0 0 0 0 0 0 0 0 0 0 0 0 0 0 0 0 0 0 0 0 0
Wind_Speed
9 10 10 10 11 11 11 12 13 13 11 9 9 8 7 6 6 6 7 8 7 7 5 4 5 4 3 2 4 3 5 3 2 3 4 3 3 3 3 2 2 3 3
9 10 10 11 11 12 12 12 13 13 13 10 8 6 6 5 5 5 7 8 7 7 6 5 5 4 3 4 3 3 3 3 3 3 3 4 5 3 3 3 2 2 2
10 11 11 11 12 12 13 12 13 13 13 12 8 7 6 5 6 7 6 7 8 7 5 6 4 4 5 4 4 4 5 3 4 3 3 2 2 5 4 3 2 2 1
9 10 11 11 12 12 12 12 13 13 13 13 11 12 9 8 8 7 6 7 7 7 7 6 5 5 4 4 5 4 3 4 4 4 2 3 3 2 4 5 4 3 2
9 10 11 11 11 11 12 11 12 13 13 13 13 12 10 8 7 7 8 8 7 7 7 7 6 5 4 4 2 3 4 4 4 3 4 3 2 4 3 3 4 4 4
8 9 10 10 10 11 11 11 12 12 13 13 13 13 12 10 10 10 9 8 7 7 8 7 6 6 4 5 4 4 4 3 2 3 3 4 4 4 3 3 4 4 3
9 9 10 10 10 11 12 11 12 12 13 13 13 12 12 12 12 11 10 9 8 7 8 8 7 6 5 5 5 5 3 4 4 4 4 3 3 3 3 4 3 3 3
9 10 10 10 10 12 12 12 13 12 12 13 12 11 11 9 9 10 9 9 7 7 9 8 8 7 7 6 5 5 5 4 4 5 3 3 4 3 4 4 4 4 4
10 10 11 11 11 11 12 12 12 12 12 12 11 10 10 9 9 10 9 8 6 7 9 9 8 8 7 6 6 5 5 5 6 6 6 5 3 4 3 4 4 5 5
11 11 11 11 11 11 11 11 12 11 11 11 10 9 10 10 9 9 9 8 8 7 9 9 9 8 8 7 7 6 6 6 6 4 4 5 5 4 4 4 4 5 6
12 11 10 11 11 11 11 11 11 12 11 11 10 9 9 9 9 9 10 9 9 9 9 10 9 9 9 8 8 8 6 7 7 7 7 7 6 4 4 4 5 5 5
12 12 12 11 11 12 12 12 12 12 12 11 11 10 9 9 9 10 10 10 9 10 10 10 10 9 9 9 10 9 9 9 8 8 8 8 6 7 6 5 6 5 4
12 12 12 12 12 12 11 12 12 12 12 12 11 10 10 10 9 9 10 10 10 10 10 10 10 10 9 10 10 10 9 9 9 8 9 9 8 8 7 7 7 6 6
12 12 12 11 11 11 11 11 12 12 12 12 12 11 11 11 10 9 9 9 9 9 9 9 9 9 9 9 9 9 9 9 9 8 8 9 9 9 8 7 8 7 7
11 11 11 10 10 10 10 10 11 11 11 12 12 12 11 10 10 10 9 9 9 9 9 9 9 9 8 8 9 9 9 9 9 9 9 9 8 7 6 7 7 7 7
9 10 10 10 9 9 9 9 9 10 10 11 11 10 10 10 10 9 9 9 9 9 9 9 9 8 7 5 7 8 8 8 9 9 9 9 9 9 9 8 8 7 8
8 8 8 8 8 8 7 8 8 9 9 10 9 9 10 9 9 9 9 9 9 8 8 8 8 7 6 5 7 9 8 8 8 8 7 7 7 8 9 10 12 11 10
7 6 6 6 6 6 7 7 7 8 8 8 8 8 8 8 8 8 8 8 7 7 7 7 7 6 5 6 7 8 9 8 7 7 8 7 7 6 6 7 9 10 10
5 5 5 6 6 6 6 7 7 7 6 6 6 5 6 6 7 7 6 6 5 5 5 5 5 5 3 4 6 7 7 7 8 7 7 6 6 3 3 7 8 9 8
7 6 6 7 7 6 7 8 7 7 6 5 4 4 4 4 4 4 4 4 4 4 4 4 3 3 2 3 4 6 5 5 5 5 5 4 4 2 4 7 8 9 8
9 9 9 8 8 8 9 10 9 8 6 6 6 6 5 5 4 3 3 4 4 4 3 3 2 2 2 4 4 4 3 3 4 3 3 2 4 3 4 6 7 7 7
11 11 10 10 9 9 10 11 10 8 9 9 9 8 7 5 5 5 4 4 4 4 4 3 3 2 3 3 3 2 2 3 3 2 2 1 3 3 4 4 4 5 6
11 11 12 12 11 10 10 11 10 9 10 10 10 9 9 8 7 6 6 5 4 3 3 3 3 3 3 3 4 3 2 2 2 1 2 1 2 3 5 5 5 6 6
10 11 12 13 12 11 11 11 10 9 10 11 10 9 9 9 9 6 6 5 5 4 3 3 3 3 3 3 3 1 1 2 1 1 2 4 5 5 3 4 5 5 4
10 11 11 13 13 12 12 11 9 9 10 10 9 9 9 9 9 9 9 8 9 8 5 5 4 4 4 5 5 4 3 3 3 3 2 2 2 2 2 3 3 3 3
11 12 12 13 12 12 11 10 9 9 9 8 8 7 6 6 6 7 9 13 10 11 12 11 8 8 8 6 5 5 4 3 3 4 2 2 3 3 3 3 3 3 3
Wind_Direction
178 175 177 180 177 181 182 182 181 180 174 172 175 173 172 171 173 171 167 173 172 171 193 181 170 207 181 191 184 190 171 189 183 185 166 152 146 127 141 146 156 147 153
174 174 178 179 184 184 183 183 185 181 180 176 173 172 161 167 167 169 166 176 176 180 188 187 189 186 172 187 189 213 221 177 203 233 200 177 161 172 145 153 157 140 149
182 180 185 186 184 186 187 185 185 181 181 172 161 155 154 166 167 170 172 180 182 185 185 186 199 183 204 179 196 202 219 204 193 247 261 233 181 156 156 153 140 147 153
184 184 187 187 186 187 188 187 183 180 179 173 172 174 180 181 177 175 169 173 186 187 185 188 189 197 199 168 200 189 209 225 205 184 258 319 4 266 161 172 163 164 181
183 184 186 186 185 184 183 183 181 179 178 179 180 184 187 182 168 170 165 178 182 191 189 186 188 192 200 182 201 169 227 223 236 210 196 200 209 259 262 175 171 181 178
179 178 178 179 183 180 178 178 177 178 178 181 184 189 185 176 169 175 173 183 179 187 187 188 190 196 195 181 192 196 200 239 251 260 233 222 222 225 235 219 209 198 177
173 172 175 176 177 178 177 176 178 178 179 182 185 189 185 180 180 182 182 187 183 185 182 189 192 196 192 192 194 199 214 207 209 234 239 246 257 264 258 259 237 223 191
172 173 175 176 177 178 175 175 177 177 177 181 183 186 186 187 187 190 186 191 193 187 177 187 191 196 194 196 194 209 201 205 217 228 247 252 242 247 250 260 260 239 220
172 172 173 176 176 177 175 175 175 173 176 177 179 184 187 194 189 185 194 193 193 184 180 188 193 196 198 201 201 218 209 206 220 216 209 237 228 237 247 255 267 273 266
172 170 172 173 173 172 170 173 173 173 176 176 179 180 186 192 190 193 197 197 193 190 184 191 196 198 199 201 210 215 209 217 222 237 238 240 236 223 234 242 249 261 276
170 168 168 169 169 169 168 172 172 172 177 181 182 183 185 189 191 196 200 197 194 193 195 197 199 200 201 203 209 225 211 219 220 219 219 226 246 240 233 231 239 242 250
167 165 164 164 168 171 173 174 176 176 179 181 181 184 185 189 195 198 200 195 195 197 199 201 203 205 206 206 210 219 218 220 222 222 223 224 220 223 247 243 241 244 253
166 165 165 167 171 173 176 179 181 181 179 178 181 185 188 190 197 200 197 195 196 200 202 204 208 212 213 212 215 219 222 224 227 226 225 226 227 226 231 236 243 239 232
166 167 167 171 172 173 175 181 184 183 180 180 184 187 192 194 195 196 194 195 197 199 202 205 211 215 218 219 220 220 223 226 229 231 233 233 231 230 233 232 240 248 250
163 166 166 165 168 171 176 181 183 184 183 184 189 191 192 194 197 198 198 197 200 204 206 210 214 216 218 222 221 222 222 224 228 229 232 235 237 244 244 250 239 235 240
162 162 162 159 164 169 175 177 181 182 182 187 192 191 191 192 197 199 199 200 203 209 210 214 216 217 223 201 206 228 233 229 231 233 232 232 222 226 229 252 269 273 255
154 156 158 159 161 168 173 178 179 178 182 188 191 190 191 192 196 200 199 202 203 205 211 215 218 222 225 188 196 214 239 239 237 238 238 242 233 219 228 221 226 242 251
140 141 145 146 150 155 162 166 165 169 176 182 186 188 190 190 191 196 199 201 203 203 207 212 215 220 217 180 196 204 226 241 239 238 238 240 249 241 241 244 238 238 235
115 116 124 127 126 133 142 145 146 148 153 160 166 174 184 187 189 193 197 199 200 200 203 206 209 211 193 164 190 206 219 228 235 237 237 237 239 226 224 248 254 256 254
99 102 105 107 108 110 118 122 121 124 128 132 136 139 148 155 169 178 182 177 179 185 190 189 196 196 190 148 178 206 225 228 231 228 227 221 234 230 218 245 253 257 261
95 94 93 91 92 100 105 105 102 101 104 105 104 101 104 109 112 121 137 150 155 152 153 145 138 129 116 118 135 191 231 239 236 234 230 196 178 218 229 243 255 264 275
94 94 91 87 86 94 100 97 93 94 97 96 92 86 81 82 92 100 101 109 123 130 129 127 116 99 95 83 108 148 218 285 258 259 271 125 154 207 229 238 257 269 265
93 93 93 87 78 77 87 90 89 93 94 91 88 84 79 74 73 82 91 98 101 102 108 112 109 98 89 100 108 133 179 237 270 309 51 70 197 224 224 221 235 247 252
91 92 92 89 81 75 75 80 86 91 91 89 87 85 80 74 65 55 58 59 58 66 72 77 80 83 78 53 41 50 115 167 219 274 164 192 214 237 257 229 222 242 273
90 87 88 88 86 81 78 78 80 85 88 86 84 82 79 77 71 64 49 52 51 41 40 47 51 47 60 45 23 7 16 3 14 322 274 265 257 261 272 280 289 286 277
93 90 88 87 87 84 80 76 76 79 85 88 83 81 82 83 86 89 82 59 65 68 63 52 49 72 67 63 51 40 27 6 329 296 290 306 309 315 322 318 316 312 315